Home > Time Zones > World Clock > Weather > India > Churu > Past weeks

Flag for India Weather past 2 weeks in Churu, Rajasthan, India

Now
75 °F

Haze.


Feels Like: 78 °F
Forecast: 74 / 100 °F
Wind: 2 mph from North

Location: Jaipur / Sanganer

Current Time: Mar 28, 2015 at 4:44:45 AM

Latest Report: Mar 28, 2015 at 4:00 AM


Visibility: 2 mi

Pressure: 29.92 "Hg

Humidity: 54%

Dew point: 57 °F

Location of ChuruLocation

Historic Weather in Churu — Graph

°F

Churu temperature yesterday

Maximum temperature yesterday: 97 °F (at 3:00 PM)
Minimum temperature yesterday: 72 °F (at 7:00 AM)
Average temperature yesterday: 84 °F

Past Weeks' High & Low Weather Summary

 TemperatureHumidityPressure
High99 °F (Mar 25, 4:00 PM)100% (Mar 14, 1:00 PM)30.15 "Hg (Mar 14, 1:00 PM)
Low59 °F (Mar 15, 2:00 AM)17% (Mar 24, 3:30 PM)29.83 "Hg (Mar 24, 4:00 PM)
Average77 °F51%29.99 "Hg
* Reported Mar 13 3:00 AM — Mar 28 3:00 AM, Churu, Weather by CustomWeather, © 2015

Note: Actual official high and low records may vary slightly from our data, if they occured in-between our weather recording intervals... More about our weather records

Advertising

Churu weather history for previous 24 hours

 ConditionsComfort  
Time TempWeatherWind HumidityBarometerVisibility
3:00 AM
Sat, Mar 28
77 °FHaze.No wind51%29.92 "Hg2 mi
2:00 AM77 °FHaze.No wind47%29.92 "Hg2 mi
1:00 AM81 °FHaze.No wind42%29.95 "Hg2 mi
12:00 AM82 °FHaze.3 mph40%29.95 "Hg2 mi
11:00 PM
Fri, Mar 27
84 °FHaze.3 mph35%29.95 "Hg2 mi
9:00 PM86 °FHaze.6 mph33%29.95 "Hg2 mi
8:00 PM90 °FHaze.6 mph29%29.95 "Hg2 mi
7:00 PM91 °FHaze.9 mph30%29.92 "Hg2 mi
6:00 PM95 °FHaze.7 mph23%29.89 "Hg2 mi
4:00 PM97 °FHaze.8 mph20%29.92 "Hg2 mi
3:00 PM97 °FHaze.5 mph20%29.95 "Hg2 mi
2:00 PM95 °FHaze.7 mph20%29.98 "Hg2 mi
1:00 PM95 °FHaze.6 mph23%29.98 "Hg2 mi
12:00 PM93 °FHaze.5 mph28%30.01 "Hg2 mi
11:00 AM90 °FHaze.5 mph33%30.04 "Hg2 mi
10:00 AM88 °FHaze.3 mph33%30.04 "Hg2 mi
9:00 AM82 °FHaze.3 mph45%30.04 "Hg2 mi
8:00 AM77 °FHaze.No wind54%30.01 "Hg2 mi
7:00 AM72 °FScattered clouds.No wind65%30.01 "Hg2 mi
6:30 AM73 °FPartly cloudy.2 mph57%30.01 "Hg2 mi
6:00 AM73 °FPartly cloudy.3 mph57%29.98 "Hg2 mi
5:30 AM73 °FPartly cloudy.3 mph57%29.98 "Hg2 mi
5:00 AM73 °FPartly cloudy.7 mph61%29.98 "Hg2 mi
4:00 AM75 °FPartly cloudy.2 mph54%29.95 "Hg1 mi
Weather by CustomWeather, © 2015

See weather overviewHow to use our weather pages